Home > Weather > Saint-Petersburg > Past weeks

Flag for Russia Past Weather in Saint-Petersburg, Russia — Yesterday and Last 2 Weeks

Now
75 °F

Passing clouds.


Feels Like: 78 °F
Forecast: 58 / 73 °F
Wind: 3 mph from Northeast

Location: St. Petersburg

Current Time: May 30, 2016 at 5:40:12 PM

Latest Report: May 30, 2016 at 5:00 PM


Visibility: N/A

Pressure: 30.18 "Hg

Humidity: 41%

Dew Point: 50 °F

Location of Saint-PetersburgLocation

Past Weather in Saint-Petersburg — Graph

°F

Saint-Petersburg Temperature Yesterday

Maximum temperature yesterday: 70 °F (at 3:00 PM)
Minimum temperature yesterday: 55 °F (at 12:00 AM)
Average temperature yesterday: 62 °F

High & Low Weather Summary for the Past Weeks

 TemperatureHumidityPressure
High79 °F (May 30, 2:30 PM)100% (May 17, 6:00 AM)30.30 "Hg (May 17, 6:00 AM)
Low41 °F (May 18, 2:30 AM)27% (May 15, 4:00 PM)29.65 "Hg (May 15, 4:00 PM)
Average58 °F72%29.95 "Hg
* Reported May 15 4:00 PM — May 30 4:30 PM, Saint-Petersburg, Weather by CustomWeather, © 2016

Note: Actual official high and low records may vary slightly from our data, if they occured in-between our weather recording intervals... More about our weather records

Advertising

Saint-Petersburg Weather History for the Previous 24 Hours

Scroll right to see more
 ConditionsComfort  
Time TempWeatherWind HumidityBarometerVisibility
4:30 PM
Mon, May 30
75 °FPassing clouds.6 mph41%30.18 "HgN/A
4:00 PM75 °FSunny.6 mph41%30.18 "Hg10 mi
3:30 PM77 °FPassing clouds.6 mph42%30.18 "HgN/A
3:00 PM77 °FSunny.6 mph42%30.18 "Hg10 mi
2:30 PM79 °FPassing clouds.6 mph42%30.18 "HgN/A
2:00 PM77 °FSunny.3 mph44%30.18 "Hg10 mi
1:30 PM77 °FPassing clouds.6 mph44%30.18 "HgN/A
1:00 PM77 °FPassing clouds.6 mph44%30.18 "HgN/A
12:30 PM75 °FSunny.3 mph47%30.18 "Hg10 mi
12:00 PM77 °FSunny.6 mph44%30.18 "Hg10 mi
11:30 AM75 °FPassing clouds.6 mph47%30.18 "HgN/A
11:00 AM75 °FPassing clouds.6 mph47%30.18 "HgN/A
10:30 AM73 °FSunny.6 mph50%30.18 "Hg10 mi
10:00 AM72 °FPassing clouds.3 mph57%30.18 "HgN/A
9:30 AM70 °FPassing clouds.3 mph60%30.18 "HgN/A
9:00 AM70 °FPassing clouds.6 mph60%30.18 "HgN/A
8:30 AM66 °FSunny.3 mph68%30.18 "Hg10 mi
8:00 AM66 °FPassing clouds.3 mph68%30.18 "HgN/A
7:30 AM64 °FPassing clouds.3 mph68%30.18 "HgN/A
7:00 AM63 °FSunny.1 mph73%30.18 "Hg10 mi
6:30 AM63 °FSunny.1 mph73%30.18 "Hg10 mi
6:00 AM61 °FSunny.1 mph72%30.21 "Hg10 mi
5:30 AM57 °FSunny.No wind82%30.18 "Hg10 mi
5:00 AM55 °FSunny.No wind82%30.18 "Hg10 mi
4:30 AM54 °FSunny.No wind88%30.18 "Hg10 mi
4:00 AM54 °FSunny.No wind88%30.21 "Hg10 mi
3:30 AM54 °FClear.No wind88%30.21 "Hg10 mi
3:00 AM54 °FClear.No wind82%30.21 "Hg10 mi
2:30 AM55 °FClear.1 mph82%30.21 "Hg10 mi
2:00 AM57 °FClear.1 mph77%30.21 "Hg10 mi
1:30 AM55 °FPassing clouds.3 mph82%30.21 "HgN/A
1:00 AM59 °FClear.3 mph77%30.21 "Hg10 mi
12:30 AM59 °FClear.1 mph77%30.21 "Hg10 mi
12:00 AM55 °FClear.1 mph88%30.21 "Hg10 mi
11:30 PM
Sun, May 29
57 °FClear.1 mph82%30.21 "Hg10 mi
11:00 PM63 °FClear.1 mph68%30.18 "Hg10 mi
10:30 PM63 °FClear.1 mph68%30.18 "Hg10 mi
10:00 PM64 °FSunny.3 mph64%30.18 "Hg10 mi
9:30 PM64 °FSunny.1 mph68%30.18 "Hg10 mi
9:00 PM64 °FSunny.1 mph68%30.18 "Hg10 mi
8:30 PM66 °FPassing clouds.3 mph64%30.18 "HgN/A
8:00 PM66 °FSunny.3 mph64%30.18 "Hg10 mi
7:30 PM68 °FPassing clouds.3 mph64%30.18 "HgN/A
7:00 PM68 °FPassing clouds.3 mph64%30.18 "HgN/A
6:30 PM70 °FPassing clouds.6 mph57%30.18 "HgN/A
6:00 PM70 °FScattered clouds.6 mph57%30.18 "HgN/A
5:30 PM70 °FScattered clouds.6 mph57%30.18 "HgN/A
5:00 PM70 °FScattered clouds.3 mph57%30.18 "HgN/A
Weather by CustomWeather, © 2016

See weather overviewHow to use our weather pages